Location: Eymir
(36.7333°N, 29.7833°E)
Time: 18:26:19
(UTC+00:00)

USA 234 - Pass Details

Date: 14 January 2026
Orbit: 1102 x 1106 km, 123.0° (Epoch: 4 January)

Event Time Altitude Azimuth Distance (km) Brightness Sun altitude
Rises 04:08:47 0° 43° (NE) 3,929 6.5 -12.8°
Reaches altitude 10° 04:11:16 10° 43° (NE) 2,969 5.9 -12.3°
Maximum altitude 04:17:50 86° 315° (NW) 1,111 3.3 -11.0°
Drops below altitude 10° 04:24:23 10° 228° (SW) 2,955 5.2 -9.8°
Sets 04:26:51 0° 228° (SW) 3,909 5.9 -9.3°
